Date String (YYYY-MM-DD hh:mm:ss) UTC,Instrument flags,Ambient pressure (hPa),Sample flow (lpm),Bypass flow (lpm),Sample temperature (°C),Ambient temperature (°C),ASC tube jacket temperature (°C),LED temperature (°C),Box temperature (°C),Sample RH (%),Span deviation,Mass concentration (μg/m³),Mass concentration (μg/m³),Mass concentration (μg/m³)
DateTimeUTC,F1_M11,P_M11,Q1_M11,Q2_M11,T1_M11,T2_M11,T3_M11,T4_M11,T5_M11,U1_M11,ZSPAN_M11,X0_M11,X2_M11,X1_M11
2022-12-07 13:00:00,,0826.6,5.01,0.00,22.0,21.1,00.0,30.9,23.8,09.8,0000.0,0005.79,0002.02,0001.60
2022-12-07 13:01:00,,0826.5,5.00,0.00,22.0,20.9,00.0,30.9,23.8,09.8,0000.0,0005.42,0002.02,0001.59
2022-12-07 13:02:00,,0826.5,5.00,0.00,21.9,20.7,00.0,30.9,23.7,09.6,0000.0,0005.46,0002.03,0001.58
2022-12-07 13:03:00,,0826.6,5.00,0.00,21.9,20.6,00.0,30.9,23.6,09.5,0000.0,0005.65,0002.05,0001.56
2022-12-07 13:04:00,,0826.7,4.99,0.00,21.9,20.5,00.0,30.9,23.6,09.5,0000.0,0005.47,0002.00,0001.54
2022-12-07 13:05:00,,0826.6,4.99,0.00,21.9,20.4,00.0,30.9,23.6,09.5,0000.0,0006.48,0001.99,0001.52
2022-12-07 13:06:00,,0826.6,5.01,0.00,21.8,20.3,00.0,30.9,23.5,09.5,0000.0,0006.89,0002.04,0001.52
2022-12-07 13:07:00,,0826.5,5.01,0.00,21.8,20.3,00.0,30.9,23.5,09.5,0000.0,0007.36,0002.05,0001.51
2022-12-07 13:08:00,,0826.5,5.00,0.00,21.8,20.2,00.0,30.9,23.5,09.5,0000.0,0007.54,0002.04,0001.50
2022-12-07 13:09:00,,0826.5,5.01,0.00,21.8,20.6,00.0,30.8,23.5,09.4,0000.0,0007.70,0002.05,0001.50
2022-12-07 13:10:00,,0826.5,5.00,0.00,21.9,21.5,00.0,30.7,23.8,09.5,0000.0,0007.76,0002.08,0001.49
2022-12-07 13:11:00,,0826.5,4.99,0.00,22.0,22.0,00.0,30.8,24.0,09.4,0000.0,0007.30,0002.07,0001.48
2022-12-07 13:12:00,,0826.5,4.99,0.00,22.0,21.7,00.0,30.8,24.0,09.4,0000.0,0006.67,0002.12,0001.47
2022-12-07 13:13:00,,0826.5,5.01,0.00,22.0,21.4,00.0,30.9,23.9,09.5,0000.0,0006.84,0002.11,0001.46
2022-12-07 13:14:00,,0826.5,5.00,0.00,22.0,21.2,00.0,30.9,23.8,09.6,0000.0,0007.30,0002.08,0001.45
2022-12-07 13:15:00,,0826.5,5.00,0.00,22.0,21.0,00.0,30.9,23.8,09.7,0000.0,0007.28,0002.06,0001.45
2022-12-07 13:16:00,,0826.4,5.00,0.00,22.0,20.8,00.0,30.9,23.8,09.4,0000.0,0006.38,0002.04,0001.44
2022-12-07 13:17:00,,0826.5,5.00,0.00,21.9,20.7,00.0,30.9,23.7,09.2,0000.0,0005.72,0001.98,0001.42
2022-12-07 13:18:00,,0826.5,5.00,0.00,21.9,20.5,00.0,30.9,23.6,09.3,0000.0,0005.16,0001.92,0001.41
2022-12-07 13:19:00,,0826.5,5.00,0.00,21.9,20.5,00.0,30.9,23.6,09.2,0000.0,0004.50,0001.85,0001.39
2022-12-07 13:20:00,,0826.5,5.00,0.00,21.9,20.4,00.0,30.9,23.6,09.2,0000.0,0003.67,0001.81,0001.37
2022-12-07 13:21:00,,0826.5,5.00,0.00,21.8,20.3,00.0,30.9,23.5,09.2,0000.0,0003.38,0001.71,0001.34
2022-12-07 13:22:00,,0826.5,5.00,0.00,21.8,20.3,00.0,30.8,23.5,09.3,0000.0,0003.36,0001.69,0001.33
2022-12-07 13:23:00,,0826.5,5.01,0.00,21.8,20.7,00.0,30.8,23.6,09.5,0000.0,0003.14,0001.63,0001.31
2022-12-07 13:24:00,,0826.5,5.01,0.00,21.9,21.7,00.0,30.7,23.9,09.3,0000.0,0002.93,0001.60,0001.29
2022-12-07 13:25:00,,0826.5,4.99,0.00,22.0,22.1,00.0,30.8,24.0,09.3,0000.0,0002.47,0001.62,0001.29
2022-12-07 13:26:00,,0826.5,4.99,0.00,22.0,21.7,00.0,30.8,24.0,09.4,0000.0,0002.66,0001.63,0001.28
2022-12-07 13:27:00,,0826.5,5.00,0.00,22.0,21.4,00.0,30.9,23.9,09.5,0000.0,0002.73,0001.63,0001.27
2022-12-07 13:28:00,,0826.5,5.00,0.00,22.0,21.2,00.0,30.9,23.8,09.4,0000.0,0002.84,0001.65,0001.27
2022-12-07 13:29:00,,0826.5,5.00,0.00,22.0,21.0,00.0,30.9,23.7,09.2,0000.0,0002.80,0001.62,0001.26
2022-12-07 13:30:00,,0826.6,5.00,0.00,22.0,20.8,00.0,30.9,23.7,09.3,0000.0,0003.07,0001.62,0001.25
2022-12-07 13:31:00,,0826.6,5.00,0.00,21.9,20.7,00.0,30.9,23.7,09.3,0000.0,0003.54,0001.60,0001.24
2022-12-07 13:32:00,,0826.6,5.00,0.00,21.9,20.5,00.0,30.9,23.6,09.2,0000.0,0003.56,0001.61,0001.25
2022-12-07 13:33:00,,0826.7,5.01,0.00,21.9,20.4,00.0,30.9,23.5,09.2,0000.0,0003.46,0001.57,0001.23
2022-12-07 13:34:00,,0826.7,5.00,0.00,21.8,20.3,00.0,30.9,23.5,09.2,0000.0,0003.43,0001.55,0001.23
2022-12-07 13:35:00,,0826.7,5.00,0.00,21.8,20.3,00.0,30.8,23.5,09.3,0000.0,0003.48,0001.58,0001.23
2022-12-07 13:36:00,,0826.6,5.00,0.00,21.8,20.4,00.0,30.8,23.5,09.2,0000.0,0003.44,0001.56,0001.22
2022-12-07 13:37:00,,0826.7,5.00,0.00,21.9,21.4,00.0,30.8,23.8,09.1,0000.0,0003.16,0001.51,0001.20
2022-12-07 13:38:00,,0826.7,4.99,0.00,22.0,22.1,00.0,30.8,24.0,09.0,0000.0,0004.68,0001.52,0001.19
2022-12-07 13:39:00,,0826.6,4.98,0.00,22.0,21.8,00.0,30.8,24.0,09.0,0000.0,0005.00,0001.49,0001.17
2022-12-07 13:40:00,,0826.7,5.00,0.00,22.0,21.5,00.0,30.9,24.0,09.0,0000.0,0005.67,0001.49,0001.16
2022-12-07 13:41:00,,0826.7,5.01,0.00,22.0,21.2,00.0,30.9,23.9,09.0,0000.0,0005.85,0001.53,0001.15
2022-12-07 13:42:00,,0826.7,5.00,0.00,22.0,21.0,00.0,30.9,23.9,08.9,0000.0,0005.36,0001.55,0001.15
2022-12-07 13:43:00,,0826.7,5.00,0.00,22.0,20.8,00.0,30.9,23.8,08.9,0000.0,0005.37,0001.55,0001.14
2022-12-07 13:44:00,,0826.7,5.00,0.00,22.0,20.7,00.0,30.9,23.7,08.9,0000.0,0005.38,0001.56,0001.12
2022-12-07 13:45:00,,0826.7,5.00,0.00,21.9,20.6,00.0,30.9,23.7,08.9,0000.0,0005.39,0001.55,0001.11
2022-12-07 13:46:00,,0826.7,4.99,0.00,21.9,20.4,00.0,30.9,23.7,09.0,0000.0,0005.33,0001.51,0001.09
2022-12-07 13:47:00,,0826.7,5.01,0.00,21.9,20.4,00.0,30.9,23.7,09.3,0000.0,0005.28,0001.48,0001.08
2022-12-07 13:48:00,,0826.7,5.01,0.00,21.9,20.4,00.0,30.9,23.7,09.5,0000.0,0005.32,0001.48,0001.08
2022-12-07 13:49:00,,0826.7,5.00,0.00,21.9,20.4,00.0,30.9,23.6,09.6,0000.0,0003.92,0001.47,0001.08
2022-12-07 13:50:00,,0826.7,5.00,0.00,21.9,20.4,00.0,30.9,23.6,09.7,0000.0,0003.36,0001.47,0001.10
2022-12-07 13:51:00,,0826.7,5.00,0.00,21.8,20.4,00.0,30.9,23.6,09.6,0000.0,0002.77,0001.51,0001.10
2022-12-07 13:52:00,,0826.8,5.00,0.00,21.8,20.6,00.0,30.8,23.6,09.6,0000.0,0002.54,0001.52,0001.12
2022-12-07 13:53:00,,0826.8,5.00,0.00,21.9,21.5,00.0,30.8,23.8,09.6,0000.0,0002.50,0001.51,0001.13
2022-12-07 13:54:00,,0826.8,5.01,0.00,22.0,22.2,00.0,30.8,24.0,09.4,0000.0,0002.49,0001.52,0001.14
2022-12-07 13:55:00,,0826.9,4.99,0.00,22.1,22.1,00.0,30.9,24.1,09.5,0000.0,0002.56,0001.56,0001.17
2022-12-07 13:56:00,,0827.0,4.99,0.00,22.1,21.8,00.0,30.9,24.0,09.4,0000.0,0002.80,0001.64,0001.19
2022-12-07 13:57:00,,0827.0,5.00,0.00,22.1,21.5,00.0,30.9,24.0,09.5,0000.0,0002.95,0001.70,0001.22
2022-12-07 13:58:00,,0826.9,5.00,0.00,22.1,21.4,00.0,30.9,24.0,09.6,0000.0,0002.95,0001.73,0001.26
2022-12-07 13:59:00,,0826.9,5.01,0.00,22.1,21.2,00.0,31.0,24.0,09.7,0000.0,0002.97,0001.78,0001.31
